Location: York
(31.8935°S, 116.7682°E)
Time: 13:16:12
(UTC+08:00)

Explorer 7 - Visible Passes

Search period start: 06 October 2022 00:00
Search period end: 16 October 2022 00:00
Orbit: 481 x 667 km, 50.3° (Epoch: 05 October)

Date Brightness Start Highest point End Pass type
(mag) Time Alt. Az. Time Alt. Az. Time Alt. Az.
06 Oct 9.7 02:59:17 14° SSE 02:59:18 14° SSE 03:01:30 10° ESE visible
06 Oct 7.0 04:36:00 10° SW 04:40:08 77° SE 04:44:31 10° NE visible
07 Oct 9.4 03:02:30 19° SE 03:02:30 19° SE 03:05:00 10° ESE visible
07 Oct 6.8 04:38:42 12° SW 04:42:31 62° NW 04:46:50 10° NE visible
07 Oct 8.3 20:14:22 10° NW 20:16:11 26° NW 20:16:11 26° NW visible
08 Oct 9.2 03:06:00 22° ESE 03:06:00 22° ESE 03:08:09 10° E visible
08 Oct 7.5 04:42:15 17° WSW 04:44:50 35° NW 04:48:48 10° NNE visible
08 Oct 8.4 18:38:25 10° NNE 18:40:37 15° NE 18:42:47 10° E visible
08 Oct 7.5 20:16:53 10° WNW 20:20:16 47° WSW 20:20:16 47° WSW visible
09 Oct 9.3 03:09:49 18° ENE 03:09:49 18° ENE 03:11:01 10° ENE visible
09 Oct 8.2 04:46:05 19° WNW 04:47:07 20° NW 04:50:18 10° N visible
09 Oct 7.7 18:39:34 10° N 18:42:51 26° NE 18:46:04 10° ESE visible
09 Oct 8.4 20:19:39 10° W 20:23:03 30° SW 20:24:06 26° S visible
10 Oct 8.9 04:50:10 11° NW 04:50:10 11° NW 04:50:45 10° NNW visible
10 Oct 6.9 18:41:21 10° NNW 18:45:07 48° NE 18:48:48 10° ESE visible
10 Oct 9.1 20:22:43 10° W 20:25:34 20° SSW 20:27:37 14° S visible
11 Oct 6.6 18:43:31 10° NW 18:47:26 89° NE 18:51:15 10° SE visible
11 Oct 9.6 20:26:10 10° WSW 20:28:10 14° SSW 20:30:10 10° S visible
12 Oct 7.6 18:45:58 10° WNW 18:49:48 51° SW 18:53:31 10° SE visible
13 Oct 8.5 18:48:42 10° W 18:52:13 31° SW 18:55:38 10° SSE visible
14 Oct 9.2 18:51:42 10° W 18:54:40 20° SSW 18:57:36 10° SSE visible
15 Oct 9.5 18:55:03 10° WSW 18:57:12 14° SSW 18:59:20 10° S visible
